Location: Cisewo
(53.3833°N, 14.9000°E)
Time: 00:45:50
(UTC+00:00)

POLYITAN 1 - Pass Details

Date: 30 September 2021
Orbit: 588 x 611 km, 97.9° (Epoch: 24 October)

Event Time Altitude Azimuth Distance (km) Brightness Sun altitude
Rises 00:45:54 0° 14° (NNE) 2,860 ? -34.1°
Reaches altitude 10° 00:48:05 10° 13° (NNE) 1,949 ? -33.9°
Enters shadow 00:49:22 19° 12° (NNE) 1,427 ? -33.8°
